{"data":{"norad_id":68775,"epoch":"2026-09-19T21:49:48.366048Z","epoch_age_seconds":90997,"freshness":"FRESH","line1":"1 68775U 26086K   26262.90958757  .00017275  00000+0  53648-3 0  9993","line2":"2 68775  97.2854 298.3335 0001093  92.5434 267.5933 15.33428456 23598","mean_motion":15.33428456,"eccentricity":0.0001093,"inclination_deg":97.2854,"raan_deg":298.3335,"arg_perigee_deg":92.5434,"mean_anomaly_deg":267.5933,"bstar":0.00053648,"rev_number":2359,"period_min":93.907217801102,"perigee_km":464.84437860177,"apogee_km":466.34041784822,"semimajor_km":6843.729398225,"source":"CELESTRAK","updated_at":"2026-09-20T09:00:43.999415Z"}}